Location: Albany
(35.0170°S, 117.8920°E)
Time: 10:06:09
(UTC+08:00)

S-56A Canister/Altair - Pass Details

Date: 31 January 2021
Orbit: 632 x 2501 km, 38.9° (Epoch: 25 February)

Event Time Altitude Azimuth Distance (km) Brightness Sun altitude
Rises 18:13:15 0° 248° (WSW) 6,158 14.1 11.5°
Reaches altitude 10° 18:17:26 10° 252° (WSW) 5,180 15.1 10.7°
Maximum altitude 18:31:37 50° 320° (NW) 2,795 10.7 7.9°
Drops below altitude 10° 18:43:09 10° 30° (NNE) 4,254 10.9 5.6°
Sets 18:46:15 0° 36° (NE) 5,016 11.2 5.0°
